sat.trackr.live / text

‹ back to catalog

STARLINK-3314

NORAD 50851 · 2022-001BA

PAYLOAD ACTIVE UNKNOWN

§ Identity

Operator
Country
US
Launch date
2022-01-06
Launch site
AFETR
Launch vehicle
Mass (kg)
RCS (m²)

Purposes: comms

External: N2YO · Heavens-Above · Gunter

§ Orbital elements

Epoch: 2026-05-25T03:41:34.991808Z

Period
95.44 min
Inclination
53.2126°
Eccentricity
0.0001652
Mean motion
15.08840629 rev/d
Perigee alt
538.6 km
Apogee alt
540.9 km
Semi-major
6,917.9 km
B*
-5.5889e-5
RAAN
195.7828°
Arg perigee
83.7854°
Mean anomaly
276.3326°
Rev number
24,181

§ Raw data

STARLINK-33141 50851U 22001BA  26145.15387722 -.00001177  00000+0 -55889-4 0  99932 50851  53.2126 195.7828 0001652  83.7854 276.3326 15.08840629241817

JSON: /api/v1/satellites/50851 · /tle

For live sub-satellite position, see the globe view (requires WebGL).

§ Visibility from observer

Set your observer location to see the next 7 days of passes ≥ 10°. The values pass through the URL so the page stays shareable.

No JS? Fill the form by hand. The geolocation button needs JavaScript.